�������l�o���
Date,Time,MP-1(��Sv/h),MP-2(��Sv/h),MP-3(��Sv/h),MP-4(��Sv/h),MP-5(��Sv/h),MP-6(��Sv/h),MP-7(��Sv/h),MP-8(��Sv/h),����,����(m/s),���J
2022/09/16,00:00,0.594,0.862,0.542,1.049,0.755,0.343,0.601,0.562,��쐼,3.4,��
2022/09/16,00:10,0.595,0.862,0.541,1.048,0.755,0.343,0.600,0.563,��쐼,3.8,��
2022/09/16,00:20,0.596,0.862,0.543,1.051,0.754,0.342,0.601,0.564,��쐼,5.1,��
2022/09/16,00:30,0.597,0.863,0.541,1.048,0.753,0.343,0.600,0.563,��쐼,5.6,��
2022/09/16,00:40,0.594,0.861,0.542,1.048,0.753,0.342,0.599,0.563,��,5.9,��
2022/09/16,00:50,0.594,0.864,0.542,1.048,0.755,0.342,0.601,0.564,��,5.9,��
2022/09/16,01:00,0.596,0.861,0.541,1.048,0.756,0.342,0.601,0.564,��,6.1,��
2022/09/16,01:10,0.597,0.861,0.541,1.049,0.753,0.342,0.601,0.563,��,5.9,��
2022/09/16,01:20,0.596,0.862,0.541,1.049,0.752,0.341,0.600,0.563,��,6.2,��
2022/09/16,01:30,0.595,0.862,0.542,1.049,0.753,0.343,0.601,0.563,��,5.8,��
2022/09/16,01:40,0.594,0.862,0.541,1.049,0.753,0.342,0.601,0.563,��,5.4,��
2022/09/16,01:50,0.594,0.865,0.540,1.048,0.753,0.344,0.600,0.563,��,5.2,��
2022/09/16,02:00,0.595,0.862,0.542,1.048,0.753,0.343,0.601,0.563,��,4.7,��
2022/09/16,02:10,0.594,0.862,0.541,1.050,0.752,0.342,0.600,0.564,��,3.6,��
2022/09/16,02:20,0.597,0.861,0.541,1.049,0.755,0.342,0.600,0.562,��,3.9,��
2022/09/16,02:30,0.597,0.864,0.540,1.049,0.755,0.344,0.598,0.563,��,4.2,��
2022/09/16,02:40,0.595,0.862,0.540,1.048,0.754,0.343,0.600,0.564,��,4.4,��
2022/09/16,02:50,0.596,0.863,0.541,1.049,0.753,0.342,0.600,0.565,��,4.5,��
2022/09/16,03:00,0.595,0.863,0.543,1.048,0.755,0.342,0.600,0.562,��,3.9,��
2022/09/16,03:10,0.596,0.863,0.541,1.050,0.754,0.344,0.600,0.564,��쐼,3.7,��
2022/09/16,03:20,0.596,0.863,0.542,1.049,0.753,0.343,0.602,0.562,��쐼,3.6,��
2022/09/16,03:30,0.596,0.864,0.541,1.049,0.753,0.342,0.601,0.562,��,3.2,��
2022/09/16,03:40,0.598,0.863,0.542,1.047,0.754,0.343,0.601,0.563,��,3.6,��
2022/09/16,03:50,0.597,0.861,0.542,1.049,0.754,0.343,0.599,0.563,��,4.5,��
2022/09/16,04:00,0.596,0.863,0.542,1.051,0.755,0.343,0.601,0.565,��,5.1,��
2022/09/16,04:10,0.597,0.863,0.543,1.049,0.756,0.341,0.600,0.563,��,4.4,��
2022/09/16,04:20,0.597,0.861,0.542,1.051,0.754,0.342,0.601,0.563,��,3.9,��
2022/09/16,04:30,0.597,0.862,0.542,1.048,0.753,0.342,0.601,0.564,��,4.8,��
2022/09/16,04:40,0.596,0.862,0.541,1.049,0.753,0.342,0.602,0.564,��,5.2,��
2022/09/16,04:50,0.597,0.861,0.542,1.046,0.752,0.342,0.601,0.564,��,5.1,��
2022/09/16,05:00,0.596,0.862,0.541,1.048,0.753,0.342,0.601,0.562,��,5.5,��
2022/09/16,05:10,0.597,0.862,0.541,1.050,0.753,0.343,0.601,0.563,��,5.4,��
2022/09/16,05:20,0.594,0.859,0.543,1.049,0.755,0.343,0.601,0.563,��,5.4,��
2022/09/16,05:30,0.596,0.863,0.543,1.047,0.754,0.343,0.600,0.561,��,5.7,��
2022/09/16,05:40,0.596,0.863,0.543,1.048,0.753,0.341,0.601,0.562,��,6.0,��
2022/09/16,05:50,0.595,0.863,0.543,1.051,0.754,0.342,0.602,0.563,��,5.4,��
2022/09/16,06:00,0.596,0.864,0.541,1.050,0.755,0.342,0.603,0.565,��쐼,4.3,��
2022/09/16,06:10,0.595,0.863,0.542,1.049,0.754,0.342,0.602,0.563,��쐼,4.2,��
2022/09/16,06:20,0.598,0.862,0.542,1.049,0.754,0.344,0.601,0.564,��,4.5,��
2022/09/16,06:30,0.598,0.861,0.542,1.051,0.754,0.342,0.603,0.562,��,4.1,��
2022/09/16,06:40,0.598,0.861,0.543,1.049,0.753,0.342,0.602,0.564,��쓌,4.8,��
2022/09/16,06:50,0.598,0.862,0.542,1.050,0.755,0.344,0.603,0.564,��쓌,5.0,��
2022/09/16,07:00,0.597,0.860,0.542,1.050,0.753,0.341,0.601,0.561,��,4.6,��
2022/09/16,07:10,0.597,0.861,0.541,1.050,0.755,0.342,0.602,0.564,��,3.3,��
2022/09/16,07:20,0.597,0.862,0.542,1.049,0.753,0.341,0.603,0.563,��,4.2,��
2022/09/16,07:30,0.597,0.862,0.540,1.050,0.753,0.341,0.603,0.561,��,3.5,��
2022/09/16,07:40,0.596,0.859,0.540,1.050,0.753,0.340,0.603,0.564,��쓌,4.1,��
2022/09/16,07:50,0.595,0.859,0.540,1.050,0.753,0.342,0.603,0.563,��쓌,3.7,��
2022/09/16,08:00,0.596,0.860,0.542,1.049,0.754,0.341,0.604,0.563,��쓌,4.8,��
2022/09/16,08:10,0.597,0.859,0.541,1.049,0.754,0.342,0.604,0.563,��쓌,5.6,��
2022/09/16,08:20,0.594,0.856,0.543,1.049,0.755,0.342,0.603,0.563,��쓌,6.1,��
2022/09/16,08:30,0.596,0.856,0.540,1.048,0.752,0.341,0.600,0.561,��쓌,6.7,��
2022/09/16,08:40,0.596,0.855,0.541,1.051,0.754,0.342,0.603,0.559,��쓌,5.3,��
2022/09/16,08:50,0.596,0.857,0.542,1.049,0.753,0.342,0.601,0.561,��쓌,5.8,��
2022/09/16,09:00,0.598,0.857,0.543,1.051,0.754,0.342,0.602,0.561,��쓌,5.5,��
2022/09/16,09:10,0.598,0.857,0.541,1.052,0.753,0.341,0.602,0.561,��쓌,6.0,��
2022/09/16,09:20,0.598,0.855,0.539,1.051,0.755,0.343,0.601,0.561,��쓌,5.9,��
2022/09/16,09:30,0.598,0.856,0.541,1.049,0.752,0.343,0.603,0.560,��쓌,5.1,��
2022/09/16,09:40,0.597,0.857,0.539,1.051,0.753,0.341,0.602,0.563,��쓌,6.4,��
2022/09/16,09:50,0.597,0.857,0.541,1.051,0.753,0.342,0.602,0.562,��쓌,6.5,��
2022/09/16,10:00,0.599,0.857,0.539,1.053,0.752,0.343,0.602,0.562,��쓌,8.4,��
2022/09/16,10:10,0.598,0.858,0.537,1.052,0.754,0.344,0.602,0.561,��쓌,8.4,��
2022/09/16,10:20,0.597,0.858,0.539,1.050,0.754,0.342,0.601,0.562,��쓌,7.1,��
2022/09/16,10:30,0.599,0.857,0.541,1.048,0.753,0.343,0.602,0.561,��쓌,7.8,��
2022/09/16,10:40,0.597,0.856,0.541,1.049,0.754,0.342,0.602,0.563,��쓌,8.3,��
2022/09/16,10:50,0.598,0.860,0.541,1.050,0.754,0.341,0.600,0.562,��쓌,7.6,��
2022/09/16,11:00,0.598,0.858,0.540,1.048,0.753,0.343,0.600,0.562,��쓌,7.1,��
2022/09/16,11:10,0.598,0.859,0.542,1.051,0.754,0.344,0.601,0.561,��쓌,7.4,��
2022/09/16,11:20,0.600,0.859,0.542,1.051,0.753,0.342,0.600,0.562,��쓌,8.1,��
2022/09/16,11:30,0.599,0.857,0.541,1.051,0.756,0.343,0.601,0.562,��쓌,7.4,��
2022/09/16,11:40,0.599,0.860,0.542,1.052,0.755,0.343,0.599,0.560,��쓌,8.2,��
2022/09/16,11:50,0.598,0.860,0.541,1.051,0.755,0.343,0.601,0.562,��쓌,7.7,��
2022/09/16,12:00,0.599,0.861,0.542,1.051,0.756,0.343,0.600,0.561,��쓌,8.5,��
2022/09/16,12:10,0.599,0.859,0.541,1.052,0.754,0.343,0.600,0.563,��쓌,8.3,��
2022/09/16,12:20,0.599,0.862,0.543,1.052,0.756,0.342,0.601,0.562,��쓌,8.7,��
2022/09/16,12:30,0.600,0.862,0.543,1.053,0.753,0.343,0.600,0.562,��쓌,7.6,��
2022/09/16,12:40,0.600,0.862,0.543,1.051,0.755,0.342,0.601,0.563,��쓌,7.8,��
2022/09/16,12:50,0.600,0.861,0.541,1.054,0.756,0.341,0.600,0.562,��쓌,7.4,��
2022/09/16,13:00,0.599,0.859,0.541,1.054,0.755,0.342,0.601,0.561,��쓌,9.4,��
2022/09/16,13:10,0.599,0.858,0.542,1.053,0.757,0.341,0.598,0.561,��쓌,9.2,��
2022/09/16,13:20,0.599,0.861,0.541,1.053,0.758,0.343,0.600,0.563,��쓌,9.6,��
2022/09/16,13:30,0.598,0.860,0.541,1.053,0.757,0.343,0.602,0.562,��쓌,8.7,��
2022/09/16,13:40,0.599,0.860,0.543,1.053,0.757,0.342,0.600,0.562,��쓌,8.5,��
2022/09/16,13:50,0.600,0.862,0.543,1.052,0.756,0.341,0.600,0.563,��쓌,10.3,��
2022/09/16,14:00,0.602,0.861,0.541,1.053,0.757,0.343,0.599,0.563,��쓌,10.3,��
2022/09/16,14:10,0.601,0.861,0.542,1.052,0.754,0.343,0.599,0.562,��쓌,11.0,��
2022/09/16,14:20,0.603,0.861,0.541,1.055,0.756,0.342,0.601,0.562,��쓌,10.2,��
2022/09/16,14:30,0.605,0.860,0.543,1.054,0.756,0.342,0.600,0.563,��쓌,9.6,��
2022/09/16,14:40,0.603,0.864,0.542,1.051,0.758,0.343,0.600,0.562,��쓌,9.6,��
2022/09/16,14:50,0.604,0.860,0.541,1.053,0.757,0.343,0.600,0.562,��쓌,10.2,��
2022/09/16,15:00,0.608,0.861,0.542,1.053,0.758,0.343,0.600,0.561,��쓌,9.5,��
2022/09/16,15:10,0.606,0.862,0.543,1.053,0.758,0.342,0.601,0.563,��쓌,9.6,��
2022/09/16,15:20,0.601,0.860,0.543,1.055,0.758,0.344,0.599,0.564,��쓌,9.9,��
2022/09/16,15:30,0.603,0.862,0.541,1.054,0.760,0.342,0.599,0.562,��쓌,9.8,��
2022/09/16,15:40,0.603,0.860,0.542,1.054,0.757,0.342,0.601,0.560,��쓌,9.3,��
2022/09/16,15:50,0.602,0.861,0.542,1.054,0.756,0.342,0.600,0.561,��쓌,9.5,��
2022/09/16,16:00,0.599,0.861,0.544,1.052,0.757,0.342,0.601,0.562,��쓌,9.7,��
2022/09/16,16:10,0.597,0.864,0.542,1.054,0.757,0.341,0.600,0.562,��,8.9,��
2022/09/16,16:20,0.595,0.864,0.541,1.052,0.756,0.341,0.600,0.561,��쓌,10.6,��
2022/09/16,16:30,0.596,0.862,0.541,1.053,0.757,0.343,0.599,0.563,��,8.5,��
2022/09/16,16:40,0.594,0.862,0.542,1.054,0.756,0.342,0.599,0.562,��,8.4,��
2022/09/16,16:50,0.593,0.861,0.544,1.051,0.757,0.343,0.598,0.562,��,8.1,��
2022/09/16,17:00,0.595,0.861,0.539,1.055,0.757,0.342,0.600,0.561,��,8.1,��
2022/09/16,17:10,0.591,0.862,0.541,1.055,0.756,0.342,0.598,0.561,��,8.0,��
2022/09/16,17:20,0.593,0.864,0.542,1.055,0.756,0.343,0.598,0.562,��,8.5,��
2022/09/16,17:30,0.593,0.864,0.542,1.053,0.759,0.343,0.598,0.563,��,8.1,��
2022/09/16,17:40,0.591,0.864,0.544,1.051,0.759,0.344,0.600,0.563,��,8.0,��
2022/09/16,17:50,0.593,0.864,0.543,1.053,0.759,0.344,0.600,0.564,��,8.0,��
2022/09/16,18:00,0.591,0.865,0.544,1.054,0.758,0.343,0.601,0.564,��,7.2,��
2022/09/16,18:10,0.592,0.863,0.545,1.055,0.758,0.343,0.600,0.564,��,7.2,��
2022/09/16,18:20,0.592,0.865,0.543,1.053,0.760,0.343,0.601,0.563,��,6.8,��
2022/09/16,18:30,0.591,0.865,0.544,1.055,0.759,0.342,0.601,0.561,��,7.2,��
2022/09/16,18:40,0.592,0.865,0.544,1.054,0.759,0.343,0.599,0.565,��,7.0,��
2022/09/16,18:50,0.591,0.866,0.543,1.055,0.759,0.343,0.600,0.562,��,7.8,��
2022/09/16,19:00,0.591,0.865,0.544,1.055,0.758,0.342,0.601,0.563,��쐼,7.1,��
2022/09/16,19:10,0.594,0.865,0.544,1.055,0.760,0.344,0.600,0.563,��,7.5,��
2022/09/16,19:20,0.593,0.865,0.543,1.054,0.758,0.343,0.599,0.563,��,7.7,��
2022/09/16,19:30,0.591,0.865,0.541,1.056,0.757,0.344,0.601,0.564,��,7.8,��
2022/09/16,19:40,0.593,0.865,0.545,1.057,0.758,0.342,0.600,0.564,��,7.0,��
2022/09/16,19:50,0.593,0.865,0.544,1.052,0.759,0.342,0.601,0.562,��,7.0,��
2022/09/16,20:00,0.594,0.862,0.545,1.057,0.760,0.343,0.600,0.563,��,7.2,��
2022/09/16,20:10,0.593,0.864,0.544,1.056,0.759,0.344,0.600,0.563,��,7.6,��
2022/09/16,20:20,0.593,0.866,0.545,1.055,0.761,0.343,0.601,0.565,��,7.5,��
2022/09/16,20:30,0.592,0.865,0.544,1.054,0.759,0.342,0.599,0.565,��,7.2,��
2022/09/16,20:40,0.595,0.862,0.544,1.057,0.760,0.344,0.600,0.563,��,7.5,��
2022/09/16,20:50,0.593,0.863,0.543,1.055,0.758,0.343,0.599,0.564,��,7.7,��
2022/09/16,21:00,0.594,0.865,0.545,1.055,0.757,0.344,0.599,0.563,��,7.5,��
2022/09/16,21:10,0.593,0.865,0.543,1.056,0.759,0.344,0.601,0.563,��,7.7,��
2022/09/16,21:20,0.593,0.866,0.545,1.054,0.758,0.344,0.600,0.565,��,8.4,��
2022/09/16,21:30,0.594,0.866,0.544,1.056,0.758,0.343,0.599,0.564,��,8.1,��
2022/09/16,21:40,0.594,0.865,0.543,1.055,0.759,0.343,0.600,0.562,��,7.7,��
2022/09/16,21:50,0.592,0.865,0.543,1.053,0.757,0.344,0.600,0.563,��,7.1,��
2022/09/16,22:00,0.592,0.865,0.546,1.054,0.758,0.344,0.599,0.563,��,6.1,��
2022/09/16,22:10,0.594,0.864,0.544,1.057,0.757,0.343,0.600,0.563,��,6.5,��
2022/09/16,22:20,0.594,0.865,0.545,1.052,0.759,0.345,0.600,0.562,��,6.1,��
2022/09/16,22:30,0.593,0.863,0.544,1.054,0.761,0.343,0.600,0.563,��,5.9,��
2022/09/16,22:40,0.594,0.864,0.545,1.056,0.758,0.342,0.601,0.562,��,5.7,��
2022/09/16,22:50,0.594,0.865,0.543,1.055,0.758,0.344,0.602,0.562,��쐼,6.0,��
2022/09/16,23:00,0.595,0.864,0.544,1.053,0.760,0.344,0.599,0.563,��,6.6,��
2022/09/16,23:10,0.595,0.866,0.543,1.054,0.758,0.343,0.601,0.563,��쐼,6.6,��
2022/09/16,23:20,0.593,0.867,0.544,1.057,0.759,0.342,0.600,0.565,��,6.3,��
2022/09/16,23:30,0.594,0.864,0.544,1.053,0.760,0.344,0.600,0.562,��쐼,5.9,��
2022/09/16,23:40,0.593,0.864,0.544,1.056,0.759,0.344,0.599,0.564,��쐼,5.4,��
2022/09/16,23:50,0.594,0.864,0.545,1.056,0.759,0.342,0.600,0.562,��,6.7,��
